weather.gov     
National Weather Service

Terminal Aerodrome Forecast
NWS Homepage
This page is being discontinued on March 12, 2014.
The same data is available at this site. Please update your bookmarks.
Thank you, and we apologize for the inconvenience.
Please send an email to SR-SRH.Webmaster@noaa.gov with any concerns.


Current Version
Previous Version:    01  02  03  04  05  06  07  08  09  10  11  12  13  14  15  16  17  18  19  20  21  22  23  24  25  
[Printable]
894
FTUS43 KJKL 242300
TAFJKL
TAF
KJKL 242320Z 2500/2524 17003KT P6SM SCT110 SCT300
     FM250400 18004KT P6SM SCT050 BKN150
     FM251000 19005KT 5SM -SHRA BR VCTS BKN015CB OVC100
     FM251300 24009G17KT P6SM FEW010 BKN025 BKN120
     FM251800 26014KT P6SM OVC025
     FM252100 29012KT P6SM FEW250=


U.S. Dept. of Commerce
NOAA National Weather Service
1325 East West Highway
Silver Spring, MD 20910
E-mail: w-nws.webmaster@noaa.gov
Page last modified: May 16, 2007
NATIONAL WEATHER SERVICE: for Safety, for Work, for Fun - FOR LIFE